Total_Precipitation_Accumulation
0.02 0.05 0.14 0.32 0.91 1.12 0.97 0.58 0.43 0.35 0.34 0.36 0.43 0.42 0.41 0.46 0.55 0.94 0.48 0.15 0.06 0.01 0.02 0.11 0.20 0.17 0.14 0.12 0.14 0.16 0.18 0.17 0.17 0.15 0.14 0.11 0.09 0.08 0.08 0.09 0.11 0.12 0.15 0.14 0.16 0.21 0.25 0.30 0.32
0.04 0.07 0.20 0.54 0.96 1.03 0.88 0.46 0.34 0.32 0.29 0.40 0.46 0.37 0.33 0.35 0.26 0.22 0.21 0.17 0.06 0.02 0.01 0.04 0.14 0.16 0.13 0.13 0.14 0.14 0.15 0.13 0.13 0.13 0.13 0.10 0.09 0.10 0.11 0.11 0.12 0.15 0.16 0.17 0.21 0.26 0.24 0.22 0.26
0.06 0.11 0.35 0.71 0.62 0.58 0.55 0.32 0.28 0.34 0.42 0.61 0.70 0.47 0.38 0.45 0.30 0.16 0.13 0.10 0.07 0.04 0.02 0.05 0.12 0.14 0.12 0.12 0.13 0.13 0.12 0.11 0.12 0.12 0.12 0.10 0.10 0.11 0.12 0.13 0.16 0.19 0.21 0.24 0.27 0.28 0.23 0.21 0.22
0.07 0.16 0.37 0.44 0.26 0.24 0.31 0.22 0.28 0.38 0.67 0.79 0.81 0.64 0.49 0.43 0.31 0.21 0.11 0.09 0.08 0.05 0.04 0.08 0.13 0.14 0.13 0.12 0.12 0.12 0.11 0.11 0.11 0.12 0.11 0.09 0.10 0.12 0.13 0.15 0.17 0.21 0.27 0.25 0.26 0.24 0.24 0.22 0.24
0.05 0.20 0.42 0.30 0.13 0.12 0.15 0.13 0.20 0.32 0.56 0.77 0.79 0.83 0.72 0.57 0.44 0.29 0.16 0.09 0.06 0.04 0.05 0.08 0.15 0.16 0.16 0.14 0.14 0.14 0.13 0.12 0.12 0.13 0.12 0.12 0.13 0.15 0.16 0.17 0.19 0.21 0.26 0.24 0.22 0.22 0.25 0.27 0.30
0.10 0.21 0.31 0.22 0.13 0.09 0.11 0.12 0.21 0.39 0.59 0.76 0.92 1.00 0.80 0.56 0.43 0.30 0.21 0.19 0.20 0.07 0.06 0.10 0.17 0.19 0.19 0.19 0.18 0.17 0.16 0.15 0.14 0.14 0.14 0.15 0.16 0.16 0.17 0.19 0.21 0.22 0.24 0.23 0.23 0.23 0.23 0.29 0.34
0.08 0.13 0.15 0.14 0.12 0.09 0.09 0.15 0.25 0.40 0.51 0.80 1.06 1.11 0.82 0.68 0.53 0.37 0.37 0.34 0.58 0.30 0.17 0.15 0.15 0.19 0.22 0.24 0.22 0.20 0.19 0.18 0.17 0.16 0.15 0.14 0.15 0.15 0.17 0.21 0.24 0.25 0.26 0.24 0.25 0.25 0.26 0.31 0.35
0.05 0.05 0.08 0.09 0.06 0.05 0.08 0.15 0.26 0.38 0.65 0.92 0.92 1.01 0.99 0.73 0.64 0.61 0.63 0.58 0.70 0.56 0.34 0.26 0.26 0.31 0.29 0.27 0.25 0.25 0.23 0.20 0.18 0.17 0.15 0.15 0.16 0.20 0.26 0.28 0.29 0.29 0.33 0.33 0.33 0.34 0.37 0.42 0.43
0.03 0.06 0.09 0.08 0.03 0.05 0.11 0.20 0.27 0.33 0.54 0.72 0.80 0.76 0.60 0.58 0.72 0.80 0.82 0.84 0.89 0.86 0.73 0.63 0.53 0.47 0.49 0.43 0.35 0.37 0.37 0.35 0.31 0.31 0.31 0.34 0.44 0.48 0.59 0.54 0.59 0.53 0.53 0.55 0.56 0.58 0.62 0.65 0.57
0.02 0.05 0.03 0.02 0.01 0.04 0.10 0.18 0.31 0.38 0.67 1.04 1.08 1.11 0.78 0.80 0.95 0.99 0.96 0.89 1.03 1.15 1.05 1.03 0.86 0.66 0.58 0.54 0.66 0.78 0.75 0.77 0.75 0.81 0.78 0.86 0.92 0.91 0.78 0.87 0.96 0.99 1.06 1.06 1.08 1.26 1.13 0.90 0.74
0.01 0.01 0.01 0.00 0.00 0.01 0.04 0.10 0.14 0.33 0.75 1.20 1.26 1.23 1.02 1.01 1.11 1.21 1.23 1.31 1.41 1.58 1.37 1.16 1.13 1.03 0.98 1.01 1.01 1.03 1.14 1.22 1.33 1.39 1.37 1.47 1.28 1.12 1.04 1.27 1.43 1.39 1.38 1.29 1.55 1.77 1.43 1.37 1.48
0.00 0.00 0.00 0.00 0.00 0.01 0.03 0.11 0.20 0.35 0.78 1.06 0.98 0.85 0.87 1.08 1.27 1.43 1.75 1.94 2.05 2.15 2.06 1.96 1.74 1.58 1.54 1.41 1.24 1.13 1.08 1.16 1.27 1.40 1.45 1.61 1.66 1.56 1.59 1.73 1.60 1.57 1.59 1.78 1.80 1.97 1.85 1.74 1.68
0.00 0.00 0.00 0.01 0.01 0.01 0.05 0.15 0.28 0.40 0.67 0.66 0.58 0.64 1.03 1.30 1.52 1.81 2.03 2.19 2.35 2.60 2.71 3.15 2.89 2.39 2.03 1.76 1.47 1.20 1.10 0.98 0.97 1.09 1.32 1.49 1.61 1.72 1.83 1.67 1.55 1.37 1.61 1.86 1.91 1.77 1.94 1.96 2.02
0.00 0.00 0.01 0.02 0.01 0.03 0.05 0.10 0.35 0.46 0.56 0.63 0.62 0.92 1.37 1.86 2.04 2.24 2.50 2.85 3.08 3.43 3.41 3.49 3.72 3.21 2.50 2.00 1.66 1.36 1.08 1.06 1.07 1.09 1.16 1.34 1.49 1.57 1.63 1.57 1.48 1.43 1.58 1.76 1.79 1.79 2.01 2.11 2.10
0.00 0.03 0.11 0.09 0.05 0.06 0.07 0.20 0.44 0.59 0.60 0.80 0.90 1.13 1.66 2.29 2.29 2.54 2.78 3.21 3.63 4.05 4.15 4.12 4.20 3.87 3.29 2.74 2.18 1.66 1.38 1.17 1.17 1.18 1.10 1.11 1.23 1.27 1.38 1.41 1.36 1.40 1.47 1.48 1.47 1.54 1.73 1.71 1.65
0.01 0.08 0.23 0.19 0.09 0.09 0.13 0.52 0.73 0.66 0.60 0.88 1.13 1.37 1.83 2.47 2.52 2.81 3.22 3.70 4.31 4.68 4.87 4.85 4.60 4.44 3.88 3.21 2.68 2.27 1.95 1.64 1.35 1.21 1.06 0.90 0.95 1.00 1.09 1.06 1.08 1.12 1.15 1.15 1.18 1.24 1.36 1.45 1.55
0.03 0.08 0.20 0.19 0.14 0.12 0.19 0.63 0.67 0.44 0.58 0.87 1.19 1.49 1.79 2.13 2.60 3.16 3.63 4.12 4.93 5.84 6.22 6.00 5.30 4.74 4.12 3.45 2.98 2.80 2.54 2.10 1.69 1.51 1.25 1.03 0.91 0.90 0.96 0.96 0.98 0.87 0.89 0.91 0.87 1.00 1.15 1.26 1.32
0.03 0.07 0.14 0.22 0.17 0.21 0.31 0.41 0.52 0.55 0.73 0.94 1.15 1.32 1.59 1.88 2.31 2.98 3.50 4.09 5.03 6.26 6.92 6.77 6.03 5.01 4.20 3.72 3.27 3.08 2.75 2.31 1.86 1.61 1.37 1.11 0.95 0.87 0.84 0.79 0.74 0.67 0.71 0.78 0.83 0.98 1.02 1.02 1.08
0.03 0.06 0.13 0.21 0.16 0.24 0.32 0.42 0.56 0.71 0.94 0.96 1.03 1.11 1.29 1.62 2.06 2.65 3.27 3.84 4.54 5.25 5.73 5.60 4.91 4.28 3.59 3.01 2.44 2.30 2.08 1.85 1.63 1.43 1.20 1.07 0.95 0.86 0.79 0.69 0.71 0.61 0.60 0.62 0.61 0.71 0.77 0.80 0.85
0.04 0.07 0.13 0.17 0.14 0.14 0.25 0.51 0.64 0.74 0.90 0.86 0.86 0.82 0.99 1.42 2.04 2.76 3.36 3.58 3.57 3.75 3.90 3.43 3.13 2.93 2.48 2.20 2.01 1.84 1.75 1.55 1.35 1.23 1.11 0.85 0.78 0.75 0.68 0.71 0.65 0.61 0.61 0.56 0.57 0.64 0.69 0.70 0.73
0.07 0.09 0.09 0.15 0.16 0.21 0.35 0.66 0.85 0.78 0.75 0.66 0.65 0.78 1.27 1.72 2.15 2.63 2.76 2.75 2.64 2.58 2.49 2.19 2.03 2.15 2.04 1.98 1.89 1.76 1.78 1.68 1.46 1.19 1.04 0.83 0.67 0.64 0.65 0.67 0.68 0.66 0.55 0.53 0.57 0.55 0.58 0.58 0.58
0.07 0.06 0.04 0.04 0.12 0.34 0.50 0.89 1.04 0.94 0.84 0.59 0.61 0.96 1.52 1.83 2.10 2.07 1.66 1.49 1.62 1.69 1.73 1.90 1.90 1.90 1.78 1.74 1.51 1.29 1.17 1.06 0.96 0.94 0.89 0.87 0.73 0.63 0.58 0.58 0.66 0.63 0.54 0.59 0.46 0.45 0.51 0.54 0.47
0.04 0.04 0.03 0.05 0.15 0.39 0.65 1.05 1.23 0.99 0.80 0.56 0.45 0.59 1.02 1.22 1.15 0.93 0.79 0.84 1.05 1.26 1.48 1.83 1.87 1.74 1.62 1.54 1.47 1.43 1.30 1.21 1.07 1.01 1.02 0.97 0.95 0.82 0.63 0.53 0.59 0.61 0.61 0.67 0.57 0.55 0.47 0.45 0.42
0.03 0.04 0.10 0.20 0.37 0.82 0.86 0.94 1.16 0.96 0.76 0.57 0.37 0.43 0.68 0.71 0.54 0.54 0.62 0.80 1.00 1.16 1.26 1.45 1.57 1.69 1.70 1.70 1.64 1.50 1.39 1.32 1.19 1.03 0.93 0.88 0.87 0.84 0.75 0.66 0.71 0.70 0.64 0.64 0.59 0.59 0.54 0.51 0.48
0.03 0.05 0.25 0.60 0.89 1.00 0.71 0.86 1.15 0.77 0.50 0.38 0.26 0.24 0.28 0.31 0.38 0.54 0.60 0.77 0.87 0.99 1.01 1.09 1.19 1.34 1.42 1.47 1.52 1.50 1.43 1.34 1.17 1.04 0.91 0.86 0.76 0.69 0.70 0.74 0.75 0.73 0.70 0.64 0.58 0.56 0.58 0.63 0.63
0.04 0.03 0.10 0.21 0.32 0.51 0.67 1.06 1.13 0.73 0.39 0.22 0.15 0.14 0.16 0.20 0.24 0.29 0.34 0.43 0.55 0.73 0.90 1.02 1.03 1.02 1.00 1.01 1.16 1.28 1.26 1.22 1.13 1.10 0.91 0.82 0.76 0.74 0.76 0.77 0.71 0.68 0.66 0.62 0.60 0.53 0.51 0.57 0.64
0.03 0.03 0.04 0.05 0.08 0.31 0.73 1.00 0.90 0.54 0.36 0.25 0.21 0.19 0.18 0.18 0.20 0.21 0.22 0.28 0.37 0.43 0.56 0.75 0.78 0.77 0.76 0.79 0.87 0.92 0.98 1.07 1.10 1.02 0.85 0.73 0.73 0.74 0.75 0.69 0.66 0.64 0.63 0.64 0.64 0.62 0.60 0.58 0.53
0.04 0.03 0.03 0.05 0.10 0.23 0.56 1.02 1.14 0.74 0.49 0.37 0.31 0.24 0.19 0.20 0.20 0.20 0.22 0.24 0.26 0.29 0.41 0.55 0.66 0.67 0.67 0.69 0.73 0.72 0.82 0.90 0.95 0.92 0.84 0.73 0.72 0.75 0.75 0.70 0.65 0.64 0.60 0.60 0.64 0.62 0.66 0.70 0.66
0.05 0.04 0.05 0.06 0.07 0.15 0.41 0.65 0.62 0.61 0.48 0.33 0.29 0.25 0.20 0.21 0.22 0.24 0.21 0.25 0.23 0.23 0.30 0.41 0.56 0.61 0.55 0.57 0.63 0.70 0.76 0.87 0.91 0.88 0.87 0.79 0.76 0.77 0.74 0.72 0.75 0.73 0.65 0.64 0.64 0.63 0.67 0.71 0.77
0.07 0.07 0.07 0.08 0.08 0.11 0.20 0.33 0.36 0.37 0.42 0.45 0.37 0.32 0.31 0.32 0.25 0.25 0.20 0.21 0.18 0.20 0.26 0.34 0.41 0.46 0.46 0.52 0.61 0.66 0.70 0.79 0.88 0.85 0.85 0.87 0.86 0.83 0.77 0.75 0.80 0.75 0.68 0.67 0.65 0.62 0.64 0.72 0.83